Location: Kawakawa
(35.3830°S, 174.0670°E)
Time: 13:04:05
(UTC+13:00)

Altair - Pass Details

Date: 07 December 2019
Orbit: 1502 x 1682 km, 47.2° (Epoch: 17 January)

Event Time Altitude Azimuth Distance (km) Brightness Sun altitude
Rises 14:35:27 0° 252° (WSW) 4,889 10.3 68.3°
Reaches altitude 10° 14:38:51 10° 245° (WSW) 3,922 10.0 67.7°
Maximum altitude 14:48:21 43° 176° (S) 2,248 8.9 66.0°
Drops below altitude 10° 14:57:55 10° 106° (ESE) 3,956 9.5 64.2°
Sets 15:01:22 0° 99° (E) 4,934 9.9 63.5°
